DLH2L8 EDDP-EKCH

Flight info

Callsign DLH2L8
Flight time 0h 56m
Altitude 36000
Route PENEM1N/26R PENEM Y233 ODLUN Z207 MAG M736 SOGMA DCT NOBRI M726 ROSOK Q296 MONAK
Aircraft A20N/M-SDE2E3FGHIRWXY/LB1

Departure

Time 2026-05-04 19:21
Airport Leipzig/Halle Airport (EDDP)

Arrival

Time 2026-05-04 20:17
Airport Copenhagen Kastrup Airport (EKCH)
Time Latitude Longitude Altitude Speed Heading
2026-05-04 18:46 51.41939 12.21775 427 ft 0 kts 15°
2026-05-04 19:01 51.41933 12.21773 429 ft 1 kts 15°
2026-05-04 19:02 51.41926 12.21769 433 ft 1 kts 15°
2026-05-04 19:02 51.41919 12.21766 439 ft 1 kts 15°
2026-05-04 19:02 51.41903 12.21759 436 ft 3 kts 15°
2026-05-04 19:02 51.41884 12.21751 440 ft 2 kts 10°
2026-05-04 19:03 51.41869 12.21749 432 ft 2 kts 340°
2026-05-04 19:03 51.41856 12.21762 425 ft 2 kts 299°
2026-05-04 19:03 51.41854 12.21769 425 ft 0 kts 284°
2026-05-04 19:10 51.41854 12.21767 441 ft 0 kts 284°
2026-05-04 19:10 51.41860 12.21765 441 ft 1 kts 345°
2026-05-04 19:10 51.41862 12.21777 441 ft 1 kts 71°
2026-05-04 19:11 51.41850 12.21829 434 ft 10 kts 112°
2026-05-04 19:11 51.41818 12.21963 434 ft 14 kts 107°
2026-05-04 19:11 51.41792 12.22115 448 ft 14 kts 105°
2026-05-04 19:11 51.41765 12.22276 452 ft 19 kts 105°
2026-05-04 19:12 51.41729 12.22483 456 ft 19 kts 106°
2026-05-04 19:12 51.41660 12.22881 463 ft 19 kts 105°
2026-05-04 19:12 51.41623 12.23092 464 ft 20 kts 105°
2026-05-04 19:13 51.41599 12.23318 463 ft 21 kts 89°
2026-05-04 19:13 51.41610 12.23562 464 ft 22 kts 86°
2026-05-04 19:13 51.41621 12.23799 468 ft 21 kts 85°
2026-05-04 19:13 51.41632 12.24033 471 ft 21 kts 85°
2026-05-04 19:14 51.41642 12.24255 475 ft 20 kts 85°
2026-05-04 19:14 51.41655 12.24489 471 ft 22 kts 85°
2026-05-04 19:14 51.41671 12.24732 474 ft 22 kts 73°
2026-05-04 19:14 51.41786 12.24823 477 ft 18 kts 13°
2026-05-04 19:15 51.41895 12.24865 486 ft 15 kts 13°
2026-05-04 19:15 51.41919 12.24874 487 ft 5 kts 13°
2026-05-04 19:15 51.41967 12.24892 491 ft 8 kts 13°
2026-05-04 19:15 51.42028 12.24915 492 ft 14 kts 13°
2026-05-04 19:16 51.42152 12.24963 484 ft 21 kts 13°
2026-05-04 19:16 51.42316 12.25025 475 ft 27 kts 13°
2026-05-04 19:16 51.42514 12.25102 470 ft 32 kts 13°
2026-05-04 19:16 51.42742 12.25187 458 ft 35 kts 13°
2026-05-04 19:17 51.42980 12.25308 451 ft 33 kts 47°
2026-05-04 19:17 51.43001 12.25594 452 ft 25 kts 84°
2026-05-04 19:17 51.43053 12.25799 452 ft 18 kts 17°
2026-05-04 19:17 51.43166 12.25750 453 ft 15 kts 300°
2026-05-04 19:18 51.43207 12.25612 455 ft 4 kts 296°
2026-05-04 19:18 51.43208 12.25612 455 ft 0 kts 296°
2026-05-04 19:19 51.43213 12.25593 455 ft 9 kts 296°
2026-05-04 19:19 51.43252 12.25465 455 ft 16 kts 295°
2026-05-04 19:19 51.43288 12.25273 457 ft 20 kts 279°
2026-05-04 19:20 51.43291 12.25142 456 ft 0 kts 266°
2026-05-04 19:20 51.43284 12.24965 456 ft 49 kts 266°
2026-05-04 19:20 51.43241 12.24030 445 ft 116 kts 265°
2026-05-04 19:21 51.43168 12.22463 462 ft 162 kts 266°
2026-05-04 19:21 51.43117 12.20749 1104 ft 148 kts 277°
2026-05-04 19:21 51.43273 12.19163 1695 ft 139 kts 303°
2026-05-04 19:21 51.43972 12.18005 2000 ft 156 kts 333°
2026-05-04 19:22 51.45040 12.17497 2406 ft 169 kts 351°
2026-05-04 19:22 51.46259 12.17105 2747 ft 189 kts 343°
2026-05-04 19:22 51.47533 12.16225 3103 ft 213 kts 329°
2026-05-04 19:22 51.48812 12.14803 3587 ft 235 kts 320°
2026-05-04 19:23 51.50072 12.13043 4409 ft 242 kts 316°
2026-05-04 19:23 51.51302 12.11177 5371 ft 245 kts 315°
2026-05-04 19:23 51.52577 12.09320 6279 ft 252 kts 323°
2026-05-04 19:23 51.54221 12.08227 6716 ft 262 kts 351°
2026-05-04 19:24 51.56078 12.08163 6917 ft 279 kts
2026-05-04 19:24 51.58064 12.08276 6945 ft 287 kts
2026-05-04 19:24 51.60051 12.08405 6943 ft 285 kts
2026-05-04 19:24 51.62045 12.08514 7040 ft 289 kts
2026-05-04 19:25 51.64062 12.08604 7625 ft 291 kts 360°
2026-05-04 19:25 51.66085 12.08682 8641 ft 291 kts 359°
2026-05-04 19:25 51.68120 12.08756 9603 ft 294 kts 359°
2026-05-04 19:25 51.70174 12.08534 10321 ft 301 kts 343°
2026-05-04 19:26 51.72089 12.07095 10652 ft 318 kts 320°
2026-05-04 19:26 51.73736 12.04562 10989 ft 336 kts 309°
2026-05-04 19:26 51.75268 12.01675 11601 ft 341 kts 307°
2026-05-04 19:26 51.76799 11.98737 12145 ft 345 kts 308°
2026-05-04 19:27 51.78373 11.95794 12968 ft 348 kts 309°
2026-05-04 19:27 51.79990 11.92850 13771 ft 353 kts 309°
2026-05-04 19:27 51.81643 11.89888 14477 ft 357 kts 309°
2026-05-04 19:27 51.83340 11.86924 15192 ft 362 kts 314°
2026-05-04 19:28 51.85383 11.84485 15881 ft 371 kts 329°
2026-05-04 19:28 51.87814 11.82974 16554 ft 380 kts 345°
2026-05-04 19:28 51.90428 11.82168 17225 ft 385 kts 347°
2026-05-04 19:28 51.93081 11.81377 17902 ft 390 kts 347°
2026-05-04 19:29 51.95748 11.80579 18615 ft 391 kts 346°
2026-05-04 19:29 51.98454 11.79892 19185 ft 397 kts 352°
2026-05-04 19:29 52.01236 11.79789 19782 ft 403 kts
2026-05-04 19:29 52.04045 11.80245 20384 ft 408 kts
2026-05-04 19:30 52.06872 11.80833 20966 ft 411 kts
2026-05-04 19:30 52.09730 11.81310 21540 ft 414 kts
2026-05-04 19:30 52.12610 11.81757 22123 ft 418 kts
2026-05-04 19:30 52.15515 11.82218 22694 ft 421 kts
2026-05-04 19:31 52.18443 11.82702 23258 ft 425 kts
2026-05-04 19:31 52.21398 11.83203 23742 ft 429 kts
2026-05-04 19:31 52.24379 11.83715 24239 ft 432 kts
2026-05-04 19:31 52.27375 11.84235 24698 ft 435 kts
2026-05-04 19:32 52.30390 11.84759 25152 ft 437 kts
2026-05-04 19:32 52.33427 11.85287 25598 ft 440 kts
2026-05-04 19:32 52.36484 11.85820 26033 ft 443 kts
2026-05-04 19:32 52.39560 11.86355 26461 ft 446 kts
2026-05-04 19:33 52.42654 11.86895 26898 ft 449 kts
2026-05-04 19:33 52.45770 11.87439 27310 ft 451 kts
2026-05-04 19:33 52.48903 11.87986 27709 ft 454 kts
2026-05-04 19:33 52.52054 11.88537 28105 ft 457 kts
2026-05-04 19:34 52.55219 11.89091 28480 ft 459 kts
2026-05-04 19:34 52.58403 11.89650 28858 ft 461 kts
2026-05-04 19:34 52.61601 11.89942 29203 ft 459 kts 354°
2026-05-04 19:34 52.64770 11.89500 29540 ft 456 kts 346°
2026-05-04 19:35 52.67852 11.88364 29893 ft 453 kts 338°
2026-05-04 19:35 52.70826 11.86846 30205 ft 454 kts 338°
2026-05-04 19:35 52.73895 11.85305 30536 ft 456 kts 338°
2026-05-04 19:35 52.76937 11.83780 30852 ft 458 kts 338°
2026-05-04 19:36 52.79948 11.82266 31189 ft 459 kts 337°
2026-05-04 19:36 52.82997 11.80727 31587 ft 458 kts 337°
2026-05-04 19:36 52.86037 11.79187 32011 ft 456 kts 337°
2026-05-04 19:36 52.89068 11.77648 32419 ft 455 kts 337°
2026-05-04 19:37 52.92091 11.76110 32834 ft 454 kts 337°
2026-05-04 19:37 52.95103 11.74574 33234 ft 452 kts 337°
2026-05-04 19:37 52.98107 11.73040 33646 ft 451 kts 337°
2026-05-04 19:37 53.01103 11.71508 34025 ft 450 kts 336°
2026-05-04 19:38 53.04090 11.69978 34307 ft 449 kts 336°
2026-05-04 19:38 53.07075 11.68445 34567 ft 449 kts 337°
2026-05-04 19:38 53.10060 11.66909 34821 ft 449 kts 337°
2026-05-04 19:38 53.13050 11.65369 35068 ft 450 kts 337°
2026-05-04 19:39 53.16038 11.63828 35310 ft 450 kts 337°
2026-05-04 19:39 53.19022 11.62288 35622 ft 448 kts 337°
2026-05-04 19:39 53.22052 11.61005 35884 ft 453 kts 345°
2026-05-04 19:40 53.27343 11.60738 35956 ft 464 kts
2026-05-04 19:40 53.33672 11.63355 35960 ft 471 kts 12°
2026-05-04 19:41 53.39956 11.66474 35965 ft 471 kts 12°
2026-05-04 19:41 53.46221 11.69593 35966 ft 466 kts 12°
2026-05-04 19:42 53.52437 11.72702 35961 ft 467 kts 12°
2026-05-04 19:42 53.58668 11.75828 35966 ft 467 kts 12°
2026-05-04 19:43 53.64895 11.78964 35964 ft 467 kts 12°
2026-05-04 19:43 53.71090 11.82097 35968 ft 460 kts 12°
2026-05-04 19:43 53.74150 11.83649 35768 ft 458 kts 12°
2026-05-04 19:44 53.77197 11.85194 35263 ft 457 kts 11°
2026-05-04 19:44 53.80243 11.86741 34652 ft 457 kts 11°
2026-05-04 19:44 53.83280 11.88286 34009 ft 457 kts 11°
2026-05-04 19:44 53.86327 11.89838 33170 ft 458 kts 11°
2026-05-04 19:45 53.89399 11.91401 32166 ft 464 kts 11°
2026-05-04 19:45 53.92520 11.92992 31168 ft 471 kts 11°
2026-05-04 19:45 53.95677 11.94605 30206 ft 477 kts 11°
2026-05-04 19:45 53.98857 11.96236 29436 ft 476 kts 11°
2026-05-04 19:46 54.02002 11.97858 28861 ft 470 kts 11°
2026-05-04 19:46 54.05114 11.99464 28271 ft 464 kts 11°
2026-05-04 19:46 54.08193 12.01052 27657 ft 460 kts 11°
2026-05-04 19:46 54.11198 12.02603 27073 ft 456 kts 11°
2026-05-04 19:47 54.14217 12.04162 26493 ft 451 kts 11°
2026-05-04 19:47 54.17204 12.05709 25984 ft 446 kts 11°
2026-05-04 19:47 54.20185 12.07379 25421 ft 442 kts 11°
2026-05-04 19:47 54.23074 12.08894 24868 ft 438 kts 11°
2026-05-04 19:48 54.26012 12.10417 24333 ft 434 kts 11°
2026-05-04 19:48 54.28887 12.11936 23810 ft 430 kts 11°
2026-05-04 19:48 54.31733 12.13470 23238 ft 427 kts 11°
2026-05-04 19:48 54.34510 12.14985 22657 ft 423 kts 12°
2026-05-04 19:49 54.37297 12.16516 22077 ft 419 kts 12°
2026-05-04 19:49 54.40057 12.18038 21536 ft 415 kts 12°
2026-05-04 19:49 54.42790 12.19548 20983 ft 411 kts 12°
2026-05-04 19:49 54.45497 12.21044 20424 ft 407 kts 12°
2026-05-04 19:50 54.48184 12.22530 19878 ft 404 kts 13°
2026-05-04 19:50 54.50843 12.24001 19346 ft 400 kts 13°
2026-05-04 19:50 54.53483 12.25465 18824 ft 397 kts 13°
2026-05-04 19:50 54.56101 12.26918 18313 ft 393 kts 14°
2026-05-04 19:51 54.58694 12.28361 17745 ft 390 kts 14°
2026-05-04 19:51 54.61264 12.29795 17183 ft 386 kts 14°
2026-05-04 19:51 54.63808 12.31217 16645 ft 383 kts 14°
2026-05-04 19:51 54.66332 12.32629 16151 ft 379 kts 14°
2026-05-04 19:52 54.68828 12.34028 15620 ft 376 kts 14°
2026-05-04 19:52 54.71307 12.35418 15100 ft 373 kts 14°
2026-05-04 19:52 54.73766 12.36799 14595 ft 370 kts 14°
2026-05-04 19:52 54.76209 12.38171 14100 ft 367 kts 14°
2026-05-04 19:53 54.78630 12.39534 13585 ft 365 kts 14°
2026-05-04 19:53 54.81033 12.40888 13056 ft 361 kts 14°
2026-05-04 19:53 54.83414 12.42232 12534 ft 358 kts 14°
2026-05-04 19:53 54.85773 12.43564 12017 ft 356 kts 14°
2026-05-04 19:54 54.88118 12.44891 11517 ft 353 kts 14°
2026-05-04 19:54 54.90439 12.46205 11072 ft 349 kts 14°
2026-05-04 19:54 54.92737 12.47508 10592 ft 346 kts 14°
2026-05-04 19:54 54.95005 12.48796 10291 ft 338 kts 14°
2026-05-04 19:55 54.97195 12.50046 10167 ft 324 kts 14°
2026-05-04 19:55 54.99296 12.51247 10046 ft 312 kts 14°
2026-05-04 19:55 55.01316 12.52401 9924 ft 300 kts 14°
2026-05-04 19:55 55.03276 12.53519 9594 ft 295 kts 14°
2026-05-04 19:56 55.05224 12.54627 9182 ft 293 kts 14°
2026-05-04 19:56 55.07145 12.55723 8986 ft 290 kts 14°
2026-05-04 19:56 55.09079 12.56825 8951 ft 293 kts 14°
2026-05-04 19:56 55.11016 12.57932 8948 ft 293 kts 14°
2026-05-04 19:57 55.12951 12.59042 8950 ft 293 kts 14°
2026-05-04 19:57 55.14891 12.60156 8949 ft 292 kts 14°
2026-05-04 19:57 55.16808 12.61258 8947 ft 291 kts 14°
2026-05-04 19:57 55.18737 12.62367 8947 ft 292 kts 14°
2026-05-04 19:58 55.20667 12.63479 8947 ft 292 kts 14°
2026-05-04 19:58 55.22596 12.64589 8950 ft 292 kts 14°
2026-05-04 19:58 55.24527 12.65699 8947 ft 292 kts 14°
2026-05-04 19:58 55.26457 12.66797 8947 ft 292 kts 14°
2026-05-04 19:59 55.28389 12.67894 8940 ft 291 kts 13°
2026-05-04 19:59 55.30311 12.68987 8758 ft 290 kts 14°
2026-05-04 19:59 55.32223 12.70075 8415 ft 288 kts 14°
2026-05-04 19:59 55.34128 12.71161 8020 ft 287 kts 14°
2026-05-04 20:00 55.36022 12.72243 7695 ft 283 kts 14°
2026-05-04 20:00 55.37856 12.73296 7583 ft 271 kts 14°
2026-05-04 20:00 55.39610 12.74306 7478 ft 259 kts 14°
2026-05-04 20:00 55.41286 12.75270 7376 ft 248 kts 13°
2026-05-04 20:01 55.42923 12.76207 7019 ft 249 kts 13°
2026-05-04 20:01 55.44597 12.77158 6524 ft 257 kts 13°
2026-05-04 20:01 55.46304 12.78131 6132 ft 258 kts 14°
2026-05-04 20:01 55.48002 12.79106 5806 ft 256 kts 14°
2026-05-04 20:02 55.49690 12.80078 5488 ft 254 kts 14°
2026-05-04 20:02 55.51363 12.81043 5161 ft 252 kts 14°
2026-05-04 20:02 55.53026 12.82002 4870 ft 250 kts 14°
2026-05-04 20:02 55.54679 12.82955 4542 ft 249 kts 15°
2026-05-04 20:03 55.56286 12.83953 4259 ft 248 kts 19°
2026-05-04 20:03 55.57891 12.85117 4032 ft 242 kts 19°
2026-05-04 20:03 55.59409 12.86215 3997 ft 232 kts 19°
2026-05-04 20:03 55.60934 12.87310 3995 ft 237 kts 19°
2026-05-04 20:04 55.62438 12.88485 4002 ft 237 kts 26°
2026-05-04 20:04 55.63784 12.90192 3997 ft 240 kts 39°
2026-05-04 20:04 55.65009 12.92152 3993 ft 241 kts 39°
2026-05-04 20:04 55.66258 12.94117 3992 ft 240 kts 38°
2026-05-04 20:05 55.67684 12.95526 3996 ft 233 kts
2026-05-04 20:05 55.69294 12.96030 3991 ft 232 kts
2026-05-04 20:05 55.70864 12.96547 3983 ft 234 kts 16°
2026-05-04 20:05 55.72270 12.98056 3992 ft 240 kts 34°
2026-05-04 20:06 55.73582 12.99889 3985 ft 240 kts 35°
2026-05-04 20:06 55.74893 13.01727 3981 ft 240 kts 35°
2026-05-04 20:06 55.76205 13.03567 3982 ft 240 kts 34°
2026-05-04 20:06 55.77629 13.04860 3981 ft 221 kts 15°
2026-05-04 20:07 55.79037 13.05743 3982 ft 213 kts 15°
2026-05-04 20:07 55.80452 13.06618 3979 ft 215 kts 14°
2026-05-04 20:07 55.81888 13.06822 3983 ft 206 kts 341°
2026-05-04 20:07 55.83076 13.05559 3976 ft 199 kts 306°
2026-05-04 20:08 55.83578 13.03328 3982 ft 197 kts 271°
2026-05-04 20:08 55.83336 13.00927 3981 ft 199 kts 255°
2026-05-04 20:08 55.82953 12.98564 3983 ft 199 kts 255°
2026-05-04 20:08 55.82567 12.96210 3983 ft 198 kts 255°
2026-05-04 20:09 55.81877 12.94101 3987 ft 204 kts 223°
2026-05-04 20:09 55.80585 12.93030 3991 ft 210 kts 197°
2026-05-04 20:09 55.79153 12.92488 3987 ft 210 kts 195°
2026-05-04 20:09 55.77719 12.91975 3988 ft 210 kts 195°
2026-05-04 20:10 55.76282 12.91469 3989 ft 211 kts 194°
2026-05-04 20:10 55.74928 12.90621 3992 ft 204 kts 220°
2026-05-04 20:10 55.74102 12.88671 3992 ft 198 kts 255°
2026-05-04 20:10 55.74017 12.86253 3995 ft 198 kts 274°
2026-05-04 20:11 55.74128 12.83826 3994 ft 197 kts 275°
2026-05-04 20:11 55.74247 12.81407 3995 ft 197 kts 275°
2026-05-04 20:11 55.74364 12.78978 3996 ft 197 kts 275°
2026-05-04 20:11 55.74536 12.76566 3987 ft 197 kts 289°
2026-05-04 20:12 55.75341 12.74624 3996 ft 202 kts 324°
2026-05-04 20:12 55.76685 12.73899 3997 ft 210 kts 359°
2026-05-04 20:12 55.78075 12.74724 3981 ft 217 kts 34°
2026-05-04 20:12 55.78998 12.76826 3776 ft 221 kts 69°
2026-05-04 20:13 55.79121 12.79525 3447 ft 223 kts 104°
2026-05-04 20:13 55.78378 12.81873 3139 ft 219 kts 140°
2026-05-04 20:13 55.77048 12.83048 2797 ft 214 kts 176°
2026-05-04 20:13 55.75586 12.82843 2466 ft 210 kts 195°
2026-05-04 20:14 55.74194 12.82359 2421 ft 194 kts 195°
2026-05-04 20:14 55.72922 12.81840 2274 ft 180 kts 204°
2026-05-04 20:14 55.71854 12.80915 2193 ft 163 kts 217°
2026-05-04 20:14 55.70937 12.79727 2119 ft 164 kts 224°
2026-05-04 20:15 55.70072 12.78436 1986 ft 162 kts 226°
2026-05-04 20:15 55.69235 12.77141 1793 ft 161 kts 226°
2026-05-04 20:15 55.68392 12.75833 1582 ft 160 kts 226°
2026-05-04 20:15 55.67554 12.74532 1379 ft 158 kts 226°
2026-05-04 20:16 55.66737 12.73264 1153 ft 157 kts 226°
2026-05-04 20:16 55.65914 12.71984 955 ft 159 kts 225°
2026-05-04 20:16 55.65088 12.70705 729 ft 155 kts 224°
2026-05-04 20:16 55.64308 12.69499 500 ft 144 kts 223°
2026-05-04 20:17 55.63597 12.68411 367 ft 129 kts 224°
2026-05-04 20:17 55.62906 12.67329 195 ft 133 kts 224°
2026-05-04 20:17 55.62227 12.66260 16 ft 127 kts 223°
2026-05-04 20:17 55.61863 12.65699 25 ft 28 kts 219°
2026-05-04 20:18 55.61670 12.65399 17 ft 42 kts 226°
2026-05-04 20:18 55.61639 12.64965 15 ft 37 kts 307°
2026-05-04 20:18 55.61674 12.64894 16 ft 0 kts 312°
2026-05-04 20:20 55.61698 12.64852 17 ft 7 kts 316°
2026-05-04 20:20 55.61745 12.64805 19 ft 10 kts 340°
2026-05-04 20:20 55.61852 12.64770 19 ft 17 kts
2026-05-04 20:20 55.61954 12.64890 19 ft 18 kts 32°
2026-05-04 20:21 55.62057 12.65007 21 ft 28 kts 33°
2026-05-04 20:21 55.62164 12.65116 24 ft 1 kts 350°
2026-05-04 20:21 55.62231 12.64958 26 ft 0 kts 302°
2026-05-04 20:25 55.62233 12.64954 24 ft 6 kts 302°
2026-05-04 20:25 55.62280 12.64880 25 ft 11 kts 351°
2026-05-04 20:25 55.62352 12.64868 24 ft 11 kts 302°
2026-05-04 20:26 55.62383 12.64779 23 ft 14 kts 303°
2026-05-04 20:26 55.62442 12.64621 25 ft 17 kts 303°
2026-05-04 20:26 55.62466 12.64558 23 ft 9 kts 303°
2026-05-04 20:26 55.62515 12.64424 21 ft 15 kts 303°
2026-05-04 20:27 55.62570 12.64278 24 ft 1 kts 311°
2026-05-04 20:27 55.62593 12.64212 24 ft 13 kts 301°
2026-05-04 20:27 55.62650 12.64123 23 ft 10 kts 357°
2026-05-04 20:27 55.62689 12.64154 28 ft 0 kts 33°